Flag Weather past 2 weeks in Lustenau, Vorarlberg, Austria

Now
39 °F

Low clouds.


Feels Like: 36 °F
Forecast: 41 / 56 °F
Wind: 5 mph from Northwest

Location: Saint Gallen-Altenrhein

Current Time: Nov 29, 2014 at 2:36:38 AM

Latest Report: Nov 29, 2014 at 2:20 AM


Visibility: N/A

Pressure: 29.86 "Hg

Humidity: 93%

Dew point: 37 °F

Location of LustenauLocation

Historic Weather in Lustenau — Graph

°F

Lustenau temperature yesterday

Maximum temperature yesterday: 45 °F (at 1:20 PM)
Minimum temperature yesterday: 39 °F (at 9:20 AM)
Average temperature yesterday: 42 °F

Past Weeks' High & Low Weather Summary

 TemperatureHumidityPressure
High52 °F (Nov 15, 12:20 PM)100% (Nov 14, 1:20 AM)30.27 "Hg (Nov 14, 1:20 AM)
Low32 °F (Nov 20, 3:20 AM)62% (Nov 16, 2:50 PM)29.53 "Hg (Nov 15, 7:50 PM)
Average44 °F93%29.95 "Hg
* Reported Nov 14 1:20 AM — Nov 29 1:20 AM, Lustenau, Weather by CustomWeather, © 2014

Note: Actual official high and low records may vary slightly from our data, if they occured in-between our weather recording intervals... More about our weather records

Advertising

Lustenau weather history for previous 24 hours

 ConditionsComfort  
Time TempWeatherWind HumidityBarometerVisibility
1:20 AM
Nov 29
39 °FLow clouds.2 mph93%29.86 "HgN/A
12:50 AM39 °FLow clouds.3 mph93%29.86 "HgN/A
12:20 AM39 °FLow clouds.5 mph93%29.86 "HgN/A
11:50 PM
Nov 28
41 °FLow clouds.5 mph87%29.86 "HgN/A
11:20 PM41 °FLow clouds.5 mph87%29.86 "HgN/A
10:50 PM41 °FLow clouds.5 mph93%29.86 "HgN/A
10:20 PM41 °FPassing clouds.5 mph93%29.83 "HgN/A
9:50 PM41 °FLow clouds.5 mph93%29.83 "HgN/A
9:20 PM41 °FPassing clouds.5 mph93%29.83 "HgN/A
8:50 PM41 °FPassing clouds.7 mph93%29.83 "HgN/A
8:20 PM41 °FPassing clouds.7 mph93%29.80 "HgN/A
7:50 PM41 °FPassing clouds.5 mph93%29.80 "HgN/A
7:20 PM43 °FPassing clouds.2 mph87%29.80 "HgN/A
6:50 PM43 °FPassing clouds.6 mph93%29.77 "HgN/A
6:20 PM43 °FPassing clouds.5 mph93%29.77 "HgN/A
5:50 PM43 °FPassing clouds.8 mph93%29.77 "HgN/A
5:20 PM43 °FPassing clouds.3 mph93%29.77 "HgN/A
4:50 PM43 °FPassing clouds.1 mph93%29.74 "HgN/A
4:20 PM43 °FPassing clouds.1 mph93%29.74 "HgN/A
3:50 PM45 °FPassing clouds.2 mph87%29.74 "HgN/A
3:20 PM45 °FPassing clouds.2 mph87%29.74 "HgN/A
2:50 PM45 °FPassing clouds.3 mph87%29.74 "HgN/A
2:20 PM45 °FPassing clouds.5 mph87%29.74 "HgN/A
1:50 PM45 °FPassing clouds.6 mph87%29.74 "HgN/A
1:20 PM45 °FPassing clouds.2 mph81%29.74 "HgN/A
12:50 PM43 °FPassing clouds.3 mph93%29.77 "HgN/A
12:20 PM41 °FPartly sunny.2 mph93%29.77 "HgN/A
11:50 AM41 °FPartly sunny.2 mph93%29.77 "HgN/A
11:20 AM41 °FPartly sunny.2 mph93%29.80 "HgN/A
10:50 AM41 °FPartly sunny.2 mph93%29.80 "HgN/A
10:20 AM41 °FLow clouds.2 mph93%29.80 "HgN/A
9:50 AM41 °FLow clouds.2 mph93%29.80 "HgN/A
9:20 AM39 °FLow clouds.5 mph100%29.80 "HgN/A
8:50 AM41 °FLow clouds.3 mph93%29.80 "HgN/A
8:20 AM41 °FLow clouds.2 mph100%29.80 "HgN/A
7:50 AM41 °FLow clouds.5 mph100%29.80 "HgN/A
7:20 AM41 °FLow clouds.No wind100%29.77 "HgN/A
6:50 AM41 °FLow clouds.1 mph100%29.77 "HgN/A
6:20 AM41 °FLow clouds.2 mph100%29.77 "HgN/A
5:50 AM41 °FLow clouds.2 mph100%29.77 "HgN/A
5:20 AM41 °FLow clouds.5 mph100%29.77 "HgN/A
4:50 AM41 °FLow clouds.5 mph100%29.77 "HgN/A
4:20 AM41 °FLow clouds.5 mph100%29.77 "HgN/A
3:50 AM41 °FLow clouds.5 mph100%29.80 "HgN/A
3:20 AM43 °FLow clouds.5 mph93%29.80 "HgN/A
2:50 AM43 °FLow clouds.5 mph93%29.80 "HgN/A
2:20 AM43 °FMostly cloudy.3 mph100%29.80 "HgN/A
Weather by CustomWeather, © 2014

See weather overviewHow to use our weather pages